Location: Newark
(43.0000°N, 1.6781°W)
Time: 01:01:44
(UTC+00:00)

deb Explorer IX - Pass Details

Date: 19 April 2021
Orbit: 541 x 1098 km, 38.8° (Epoch: 12 May)

Event Time Altitude Azimuth Distance (km) Brightness Sun altitude
Rises 11:33:53 0° 273° (W) 3,088 ? 57.6°
Reaches altitude 10° 11:36:17 10° 264° (W) 2,253 ? 57.7°
Maximum altitude 11:41:07 36° 199° (SSW) 1,287 ? 57.9°
Drops below altitude 10° 11:46:42 10° 135° (SE) 2,606 ? 58.1°
Sets 11:49:41 0° 127° (SE) 3,639 ? 58.2°
